RH
75 71 71 73 69 66 66 64 60 60 61 60 60 58 55 53 52 51 50 51 52 46 36 35 41 44 41 37 37 40 42 38 33 31 29 26 24 23 25 29 32 34 37 39 40 40 40 40 40 41 43 42 40 41 45 48 49 48 50 50 49 49 50 48 45 41 38 38 41 44 45 46 44 42 39 37 36 38 41 41 45 52 57 59 55
79 75 75 77 73 70 69 65 64 64 64 62 61 59 55 52 51 49 49 48 46 43 36 29 31 34 33 33 33 36 42 39 32 30 27 26 25 27 30 31 33 36 39 40 40 40 40 40 41 42 43 41 40 42 44 47 47 47 48 48 49 51 50 47 46 44 41 41 42 43 45 45 43 40 36 32 32 36 41 44 50 55 58 56 46
78 75 75 76 73 70 69 68 66 64 61 57 56 58 54 51 49 48 48 47 44 41 36 30 29 30 29 28 28 33 40 40 33 29 28 29 29 31 32 32 35 39 40 40 40 40 40 41 42 43 43 42 41 42 43 46 46 45 47 48 49 49 49 47 46 45 44 44 44 47 48 45 41 39 36 33 33 37 40 46 51 53 51 42 34
75 71 73 75 72 68 66 65 63 62 60 54 54 55 55 53 51 50 49 48 44 40 37 33 29 29 30 29 29 32 37 39 35 30 32 34 35 35 34 35 38 40 41 42 42 41 41 42 42 43 44 42 41 41 43 46 47 46 46 48 49 48 47 46 44 43 44 46 50 55 53 45 42 40 38 37 36 38 40 44 46 43 37 30 27
74 70 73 75 70 66 66 65 62 61 58 55 56 55 55 55 53 53 52 50 46 41 38 34 33 33 35 35 34 34 36 39 37 35 36 36 37 38 38 39 42 42 42 43 42 42 42 43 43 44 44 44 43 43 44 46 47 46 47 48 47 47 45 44 44 44 47 52 57 61 58 52 46 39 38 39 35 36 37 38 38 33 28 26 25
75 72 73 72 69 66 67 68 66 63 59 58 59 57 56 55 53 53 53 51 47 42 39 38 38 37 37 37 36 35 38 43 43 40 38 37 38 39 41 42 42 41 42 43 43 43 44 44 43 44 45 46 46 46 47 47 48 48 48 48 48 47 46 46 45 47 53 59 63 62 60 58 53 42 37 36 32 32 34 34 35 32 29 26 24
71 70 69 70 71 68 68 70 69 67 64 63 60 58 56 54 53 53 52 53 49 44 43 44 42 38 35 33 35 39 44 49 50 48 42 40 39 41 45 43 41 42 43 44 44 44 44 44 44 46 47 49 48 49 50 49 50 50 50 49 48 48 46 45 46 52 56 61 63 61 62 60 59 52 40 34 30 31 35 36 37 37 35 30 28
66 66 68 69 71 70 70 72 72 69 66 63 59 58 56 56 57 56 55 55 54 48 47 48 44 39 37 34 36 44 50 52 52 49 44 42 40 43 48 45 43 44 45 45 44 43 43 43 44 45 46 47 48 49 49 49 50 50 50 47 46 45 43 43 47 54 56 59 60 60 62 60 59 59 50 38 31 33 38 39 40 40 40 36 32
66 66 70 69 69 68 70 71 71 70 66 63 60 61 62 62 62 62 60 59 56 52 50 50 47 41 39 39 39 48 54 53 49 45 43 41 40 44 48 47 47 47 47 46 44 44 44 44 44 44 44 44 44 46 46 46 47 47 46 43 40 40 39 44 50 54 58 62 61 60 60 57 57 60 56 44 33 37 42 42 42 43 45 43 41
69 70 71 69 67 67 68 69 70 70 68 66 65 66 66 66 65 63 62 60 58 55 53 51 50 44 41 43 44 52 57 54 49 43 41 40 40 45 50 51 51 49 47 46 44 45 47 48 50 49 47 44 44 45 45 45 46 45 44 40 36 37 43 50 54 57 64 66 62 60 58 56 55 56 56 46 38 42 47 48 46 47 51 51 51
71 71 71 69 69 68 67 68 69 67 66 63 62 63 64 65 64 64 63 63 61 60 58 54 51 46 43 45 47 55 60 57 51 45 41 39 40 48 52 52 52 51 48 47 45 44 48 53 55 56 52 48 47 46 45 46 46 46 45 41 38 41 48 54 56 59 65 66 62 60 58 56 48 48 51 45 45 46 50 53 51 52 53 53 53
70 71 70 69 67 65 63 62 62 62 61 58 56 57 60 64 65 66 65 64 65 66 65 60 53 47 44 45 49 56 63 62 55 48 44 40 41 49 53 53 54 53 50 48 47 45 48 55 57 56 54 51 50 49 46 46 47 47 46 44 43 44 48 52 55 59 63 64 66 63 58 56 44 41 47 43 46 49 50 53 52 53 54 52 53
66 67 67 67 65 61 57 58 60 59 58 56 54 53 56 60 64 65 66 65 64 67 69 65 56 46 43 45 48 54 61 65 62 52 48 44 41 47 51 53 54 52 51 49 49 46 48 54 56 54 52 51 53 52 49 48 48 48 46 45 45 44 46 49 53 57 62 66 67 64 58 57 45 35 42 43 45 50 49 52 53 53 54 53 53
66 65 65 65 63 59 58 61 63 60 57 56 54 53 54 57 62 65 68 68 67 67 66 65 58 48 45 44 46 50 55 63 67 58 51 49 46 48 50 50 51 51 51 51 51 49 48 52 55 52 50 51 53 53 51 49 48 48 46 45 46 45 44 47 53 53 56 65 65 61 56 58 48 32 35 41 44 50 48 49 53 54 55 55 55
67 65 64 62 60 59 60 62 59 56 53 53 51 49 49 50 57 64 69 71 70 66 62 59 55 52 50 45 43 47 49 56 66 63 58 57 53 53 51 49 48 49 51 52 52 51 50 52 54 53 52 53 53 53 50 48 46 46 46 45 45 45 45 47 56 54 51 58 61 59 56 57 50 32 30 37 43 48 47 49 53 54 56 57 55
66 66 65 63 62 61 58 54 50 48 47 47 45 43 42 42 48 58 66 71 72 67 62 60 54 50 50 45 41 44 47 51 62 67 67 64 60 60 57 51 49 49 51 52 52 52 52 52 54 54 52 54 54 52 49 47 45 46 48 47 46 46 49 50 56 57 52 51 54 59 60 58 49 31 26 33 41 45 47 50 50 52 55 55 54
65 66 64 61 59 56 51 48 47 46 45 43 41 38 38 38 40 49 60 66 71 70 66 67 63 55 49 45 39 40 45 50 60 67 68 67 66 67 64 58 56 55 55 55 53 51 52 53 54 54 53 53 53 51 48 47 47 48 50 50 48 47 50 52 56 59 56 49 48 59 61 58 48 31 24 28 37 43 47 50 49 52 53 52 51
61 59 56 52 49 48 47 48 48 47 47 41 39 38 35 37 38 43 54 59 66 71 70 69 71 67 58 52 47 41 43 46 54 63 65 67 68 71 71 66 63 62 59 58 55 52 52 53 54 53 52 51 51 50 47 47 48 49 51 53 50 46 49 53 59 61 60 51 47 58 60 58 49 32 27 27 31 39 46 49 48 51 51 51 50
56 52 48 45 44 45 44 46 48 47 45 39 38 37 32 34 37 40 47 55 62 69 71 68 70 73 66 62 61 53 47 45 47 56 62 66 69 72 73 72 70 67 63 61 58 54 52 52 54 54 51 50 51 50 49 49 50 50 50 54 51 48 49 55 63 63 61 53 48 58 61 59 49 32 29 29 29 35 44 47 48 50 50 51 51
50 43 39 38 38 40 39 39 41 41 40 37 37 37 33 31 35 37 39 48 60 68 71 71 69 73 71 69 70 64 56 51 49 54 61 67 70 73 74 75 74 70 66 63 60 56 53 51 52 54 53 51 51 50 51 52 51 51 52 54 52 50 51 55 62 62 62 57 50 56 61 58 44 28 29 30 29 34 42 46 47 49 50 51 49
43 38 35 32 31 32 33 32 31 33 34 34 34 36 32 31 35 36 33 38 53 65 72 75 69 70 73 70 70 68 64 60 57 58 61 64 69 73 75 77 77 72 66 65 64 58 53 51 51 53 54 53 52 50 52 54 53 52 53 54 53 53 54 57 61 62 64 60 50 52 58 54 37 25 26 28 28 32 39 44 47 48 49 49 47
35 31 30 28 26 26 26 26 26 29 30 31 32 33 29 29 33 34 34 35 44 58 69 74 70 70 72 70 69 66 64 61 59 62 63 62 64 67 72 76 77 73 69 67 66 61 55 52 52 53 53 53 52 51 53 55 55 54 54 53 53 55 58 59 61 63 65 61 51 52 58 49 32 24 23 26 28 30 34 41 46 47 47 47 46
33 26 24 24 23 23 24 25 25 26 26 29 30 28 26 28 31 30 32 35 42 53 63 72 74 75 73 71 70 66 66 64 60 61 63 64 62 63 69 73 74 73 72 68 66 64 59 56 56 53 51 51 51 53 56 58 57 56 55 55 56 58 61 63 62 63 64 61 54 54 56 43 30 24 22 24 27 30 34 40 44 45 44 44 45
35 27 24 24 25 26 28 30 30 29 28 29 27 24 26 32 36 30 26 31 40 49 58 69 77 79 79 75 70 66 68 69 67 65 65 66 65 65 67 70 71 72 72 68 65 65 63 60 58 55 50 49 50 55 60 61 59 59 59 59 61 63 64 64 64 65 64 60 55 54 51 38 30 26 23 23 25 29 34 38 40 39 40 40 41
32 27 25 25 26 28 31 33 34 35 32 31 30 29 26 28 36 30 24 28 35 44 51 64 72 73 78 78 71 69 68 67 69 70 70 69 67 67 67 69 70 71 70 67 66 66 66 63 59 56 51 49 51 56 62 64 62 61 61 61 63 64 63 64 65 66 64 60 55 52 46 33 29 26 22 22 24 27 29 34 34 33 35 37 37
29 26 26 25 26 28 31 34 37 37 36 33 32 33 29 24 27 25 26 30 30 36 43 54 63 62 65 73 74 72 68 66 67 67 70 70 69 67 67 67 67 69 69 67 66 66 67 65 63 59 53 54 56 59 62 63 63 62 61 62 64 63 62 66 67 64 62 61 55 49 42 31 27 26 22 23 24 26 27 31 31 29 32 34 33
28 26 27 28 29 31 33 35 37 38 37 37 33 32 30 26 24 23 26 28 26 33 39 43 49 49 50 59 70 71 67 66 66 64 67 71 70 69 68 68 67 67 68 68 66 66 68 68 68 63 60 64 66 66 65 62 62 62 61 61 64 63 64 67 66 64 61 59 55 47 37 28 27 25 24 27 27 27 27 27 26 26 28 29 29
31 29 30 31 33 34 36 37 38 39 38 37 36 33 32 30 26 23 23 23 25 31 35 33 34 38 39 44 54 63 67 66 64 65 68 70 70 70 71 71 69 69 71 70 67 69 70 69 68 63 64 71 74 74 68 63 63 61 60 60 62 63 65 67 63 63 60 55 51 45 34 27 27 24 26 32 33 32 29 25 23 24 26 26 27
34 31 31 33 35 37 38 39 40 39 38 36 36 35 34 34 30 26 23 23 24 27 30 32 31 32 34 36 38 47 60 66 64 64 67 69 68 70 72 73 73 72 72 72 71 73 72 70 68 64 67 72 76 76 68 63 61 61 63 61 60 62 65 68 63 61 58 54 51 44 32 26 26 24 26 35 40 38 32 26 24 24 26 26 25
36 34 34 36 37 38 40 41 41 40 38 36 36 36 34 33 32 32 30 25 24 26 32 37 36 32 32 33 34 36 47 60 66 67 68 69 69 70 72 74 75 75 74 72 71 70 71 75 71 67 73 73 71 72 69 66 61 60 62 61 61 61 65 69 65 60 55 54 53 44 34 26 24 24 26 37 43 41 35 31 28 26 26 26 25
38 37 37 38 38 39 41 40 41 39 37 35 35 35 34 33 33 36 38 33 30 33 36 39 39 38 34 32 33 35 39 49 60 68 71 69 68 69 71 72 72 72 72 70 69 71 77 83 75 70 73 75 77 74 69 67 61 57 57 60 64 61 66 71 66 62 55 55 57 47 36 28 24 24 27 38 44 39 36 35 33 29 27 26 25
38 39 38 39 39 40 40 39 38 36 35 33 32 32 31 33 35 38 41 39 38 40 39 38 39 40 38 36 33 33 36 40 50 61 69 71 69 67 66 67 68 69 69 69 70 74 82 86 77 72 71 74 83 80 70 66 61 60 56 57 64 63 70 75 68 65 57 55 58 51 38 27 24 25 28 38 43 38 37 37 36 35 32 29 27
37 39 39 39 39 40 39 38 36 34 34 31 28 28 26 28 31 35 38 39 42 45 43 41 40 39 40 41 37 33 34 37 44 53 62 68 70 69 64 63 66 66 66 71 75 77 79 79 72 72 75 73 76 77 76 71 61 60 57 55 64 67 72 76 69 67 58 51 59 55 40 29 26 24 28 39 41 38 39 38 38 40 39 35 33
39 41 40 40 39 39 38 37 36 35 34 30 26 25 23 24 25 27 29 34 43 48 46 45 42 41 42 43 41 38 36 36 40 47 56 63 67 68 63 62 63 62 62 68 76 78 72 69 68 70 73 72 72 77 84 82 68 61 56 55 65 71 74 74 70 69 59 52 62 63 45 33 31 27 28 39 40 38 41 40 38 41 42 41 39
41 41 41 39 38 38 37 37 36 36 34 29 27 24 23 24 25 28 29 30 42 47 46 47 44 42 43 43 44 43 40 39 38 42 50 56 60 62 62 61 59 59 59 60 67 71 65 62 66 67 67 68 70 73 78 81 77 69 59 55 65 72 75 74 72 73 64 53 62 68 55 40 36 32 30 37 41 40 40 40 40 40 41 43 43
41 41 41 40 40 39 38 37 37 37 33 29 28 26 26 26 28 33 32 31 40 45 45 47 45 43 43 42 43 44 43 41 39 40 43 47 50 55 58 57 56 59 60 57 62 67 62 59 62 64 68 71 70 71 73 75 76 73 65 60 66 72 74 75 73 74 69 56 57 68 65 49 42 39 34 35 40 42 41 40 42 42 41 43 44
42 41 41 42 42 42 41 39 38 35 31 28 26 25 27 27 30 35 35 36 40 42 43 45 46 46 44 42 42 42 41 42 41 41 40 41 44 48 50 51 53 57 58 56 60 62 59 58 58 61 68 70 69 70 74 76 75 74 70 67 70 72 73 75 73 74 73 64 56 61 65 54 48 48 43 38 37 41 44 42 43 44 43 43 45
42 42 43 44 44 44 42 39 37 33 29 27 23 23 25 25 31 36 36 38 38 39 40 41 44 45 43 41 41 42 41 40 41 40 38 37 39 41 44 47 48 51 54 54 56 59 57 57 57 60 65 67 67 67 71 79 79 75 74 72 70 71 72 72 72 74 78 75 65 60 61 57 51 51 51 45 38 38 42 43 44 45 45 45 45
42 43 44 46 46 46 45 39 35 32 28 28 22 21 23 23 29 34 34 37 38 38 38 37 39 41 40 40 40 43 42 41 42 40 38 35 34 35 38 42 43 45 51 50 51 56 54 53 55 57 60 60 64 68 66 70 76 77 81 80 75 73 71 69 69 72 77 81 76 66 63 60 53 51 52 50 46 42 40 41 44 46 47 46 45
43 45 45 47 48 49 47 39 35 31 27 27 23 21 24 25 28 31 33 36 37 37 36 35 36 37 37 38 38 41 42 42 42 39 37 35 33 32 33 35 37 39 46 46 46 50 49 52 55 53 55 56 61 68 66 62 66 74 83 86 82 75 71 70 69 71 75 80 80 74 69 63 55 51 52 52 51 49 45 41 41 43 46 47 46
48 47 46 48 50 51 48 41 38 33 27 27 25 23 26 29 29 29 30 34 35 35 35 34 35 35 36 37 38 40 41 42 41 38 36 33 30 29 29 31 33 35 39 42 47 47 45 52 56 52 52 54 56 63 69 65 61 66 75 81 82 78 74 75 73 71 73 76 80 80 76 70 62 53 50 52 52 52 52 48 42 39 41 44 45
51 49 52 52 51 53 50 43 41 35 28 27 28 26 27 28 28 28 29 32 34 34 34 34 34 35 36 37 39 42 44 43 41 39 36 33 31 28 27 27 29 32 34 37 43 45 46 52 57 54 50 51 54 59 64 64 60 61 66 72 77 79 78 77 75 73 72 73 78 83 82 77 71 61 51 50 51 52 55 55 51 44 39 38 38
56 55 58 57 54 56 53 46 41 36 30 28 30 29 26 26 27 27 28 31 32 33 34 34 34 35 35 36 39 42 44 43 41 40 37 35 33 31 30 28 27 28 30 32 35 39 45 49 52 55 51 47 49 54 57 59 61 62 64 67 70 74 78 77 75 74 72 73 76 83 87 83 79 73 60 51 49 50 53 55 56 54 47 41 39
64 63 63 60 58 58 56 49 43 37 32 30 31 28 24 25 27 26 27 29 30 33 34 33 34 34 34 34 35 39 41 41 40 38 37 35 33 32 32 31 29 27 28 29 29 32 38 39 44 53 52 46 45 47 52 55 59 63 65 66 68 73 79 79 76 73 72 74 75 79 86 86 83 79 72 61 53 49 50 52 54 55 54 51 49
70 68 66 63 61 59 56 50 45 40 34 32 31 27 22 24 26 26 27 28 29 31 33 33 32 33 33 33 33 35 37 39 39 37 36 34 32 32 31 30 28 27 27 28 28 29 31 33 39 45 45 48 49 45 50 56 58 61 64 66 68 72 78 80 78 75 73 73 72 74 80 86 85 82 79 72 63 54 50 49 50 52 53 54 55
69 68 67 64 61 59 55 50 48 44 38 34 31 25 21 22 24 25 26 27 27 29 32 33 34 33 33 31 32 34 35 36 37 36 35 34 32 32 32 30 28 26 26 28 27 26 28 29 34 38 40 48 51 45 48 54 55 58 64 69 69 70 74 78 79 77 76 74 72 71 74 80 84 84 83 80 73 64 57 51 48 49 50 50 51
65 64 66 63 59 57 54 51 50 46 40 34 29 24 21 21 23 23 25 26 26 27 30 33 35 36 35 33 32 34 34 34 36 36 35 34 33 33 32 31 29 27 25 26 25 24 27 27 29 35 41 44 46 45 46 49 50 54 62 68 69 69 70 73 77 77 77 77 76 74 73 76 79 81 83 84 80 75 68 59 51 49 49 48 47
63 61 62 62 59 58 56 53 50 48 42 34 29 26 21 21 22 21 22 25 25 26 28 31 34 36 37 34 33 35 35 34 34 35 35 34 34 34 33 31 30 28 27 26 25 26 27 27 27 32 39 43 44 46 47 48 49 51 59 65 67 70 71 72 76 77 79 79 77 76 76 74 74 76 80 83 83 82 78 70 60 52 50 50 48
63 60 60 60 59 58 58 55 52 49 42 34 31 28 23 22 22 20 20 22 24 25 26 29 32 35 37 36 35 36 35 34 33 34 34 35 35 35 34 32 31 30 30 29 27 28 28 28 27 28 36 43 43 42 44 49 51 49 53 61 63 68 73 73 75 77 80 81 79 77 77 74 71 71 77 82 83 83 81 77 70 61 54 53 51
62 59 58 58 57 58 57 55 51 47 41 35 32 28 25 23 20 19 20 22 23 24 25 27 29 32 34 35 36 37 36 36 35 33 33 35 36 36 34 33 32 31 32 31 28 28 28 27 28 31 38 43 41 41 45 50 52 47 46 53 61 66 68 69 73 78 81 81 80 78 76 75 72 70 74 80 82 82 81 79 75 69 62 58 54
58 56 56 56 56 57 57 54 49 44 39 35 32 29 27 25 21 21 22 22 23 24 24 25 27 30 31 32 35 37 37 38 37 34 33 35 35 35 34 33 33 31 31 31 30 29 29 27 28 32 39 42 41 42 46 49 51 47 44 47 56 60 60 62 69 76 81 80 79 77 75 74 72 72 75 79 80 81 80 78 76 72 67 65 63